Location: Bad Rothenbrunn
(47.2167°N, 11.2167°E)
Time: 18:01:00
(UTC+00:00)

SeaSat 1 - Pass Details

Date: 03 March 2021
Orbit: 744 x 747 km, 108.0° (Epoch: 19 April)

Event Time Altitude Azimuth Distance (km) Brightness Sun altitude
Rises 17:55:23 0° 33° (NNE) 3,201 5.4 -9.6°
Reaches altitude 10° 17:57:46 10° 40° (NE) 2,273 4.6 -10.0°
Maximum altitude 18:02:29 43° 112° (ESE) 1,039 2.8 -10.8°
Drops below altitude 10° 18:07:10 10° 184° (S) 2,259 5.0 -11.6°
Sets 18:09:31 0° 191° (S) 3,178 5.8 -12.0°
